[[{"header":{"parameterUnit":"m.s-1","parameterCategory":1,"la1":30.2991,"la2":30.254,"lo1":-89.0895,"lo2":-89.0444,"dy":0.0017,"dx":0.0017,"nx":28,"ny":28,"refTime":"2024-08-30T09:00:00:Z","depth":0,"parameterNumber":2,"parameterNumberName":"U-component_of_WINDS"},"data":[0,0,0,0,0,0,0,0,0,0,0,0,0,0,0,0,0,0,0,0,0,0,0,0,0,0,0,0,0,0,0,0,0,0,0,0,0,0,0,0,0,0,0,0,0,0,0,0,0,0,0,0,0,0,0,0,0,0,-2.4963,-2.4963,0,-2.5005,-2.5006,-2.5006,-2.4965,-2.4963,-2.4962,-2.496,-2.5003,-2.5006,-2.5008,0,0,0,0,0,0,0,0,0,0,0,0,0,-2.4847,-2.4849,-2.4963,-2.4964,-2.4964,-2.5005,-2.5006,-2.5006,-2.4965,-2.4963,-2.4961,-2.4959,-2.5002,-2.5005,-2.5008,0,0,0,0,0,0,0,0,0,0,0,0,0,-2.4894,-2.485,-2.4963,-2.4948,-2.4948,-2.5005,-2.5006,-2.5007,-2.4966,-2.4963,-2.4961,-2.4959,-2.5001,-2.5005,-2.5009,-2.5082,0,0,-2.5021,-2.5023,0,0,0,0,0,0,0,0,-2.4891,-2.4898,-2.495,-2.495,-2.4949,-2.4977,-2.4981,-2.5032,-2.4966,-2.4959,-2.496,-2.4957,-2.4996,-2.5001,-2.5014,-2.5084,-2.5086,-2.5021,-2.5024,-2.5026,-2.5027,0,0,0,0,0,0,0,-2.4888,-2.4896,-2.498,-2.4951,-2.495,-2.494,-2.4944,-2.499,-2.4991,-2.4959,-2.4956,-2.4962,-2.4996,-2.501,-2.5015,-2.5087,-2.5021,-2.5025,-2.5027,-2.5029,-2.5221,-2.5223,0,0,0,0,0,0,-2.4887,-2.4894,-2.4978,-2.4981,-2.4914,-2.4944,-2.4949,-2.4971,-2.499,-2.4991,-2.4964,-2.496,-2.5005,-2.501,-2.5016,-2.5103,-2.5025,-2.5029,-2.5032,-2.5218,-2.5221,-2.5224,0,0,0,0,0,0,-2.4884,-2.4894,-2.4977,-2.4937,-2.4946,-2.4949,-2.4974,-2.4973,-2.4987,-2.4994,-2.4994,-2.4979,-2.5003,-2.501,-2.5066,-2.5104,-2.5031,-2.5035,-2.5215,-2.5219,-2.5223,-2.5278,0,0,0,0,0,0,-2.4881,-2.4894,-2.4922,-2.4938,-2.4949,-2.5026,-2.4976,-2.4975,-2.4994,-2.4989,-2.5008,-2.5008,-2.5001,-2.5061,-2.507,-2.5108,-2.5038,-2.5211,-2.5217,-2.5221,-2.5272,-2.5283,-2.5292,0,0,0,0,0,-2.4877,-2.4935,-2.4923,-2.4934,-2.4983,-2.5028,-2.5035,-2.5026,-2.4998,-2.5025,-2.503,-2.5008,-2.5099,-2.5067,-2.5077,-2.5117,-2.5209,-2.5215,-2.5221,-2.5268,-2.5281,-2.5292,0,0,0,0,0,0,-2.4922,-2.4937,-2.4924,-2.4989,-2.5008,-2.5021,-2.5056,-2.504,-2.5067,-2.5061,-2.5049,-2.5054,-2.5113,-2.5121,-2.5085,-2.5189,-2.5149,-2.5158,-2.5181,-2.5194,-2.5204,-2.5199,-2.5041,0,0,0,0,0,-2.494,-2.4976,-2.4987,-2.5043,-2.5053,-2.5053,-2.5073,-2.5065,-2.5084,-2.5091,-2.51,-2.5119,-2.5152,-2.5174,-2.5205,-2.5275,-2.5278,-2.5307,-2.5317,-2.5325,-2.5332,-2.5369,-2.5382,-2.5244,-2.5244,-2.5244,0,0,-2.4977,-2.4989,-2.5012,-2.5052,-2.5066,-2.5103,-2.506,-2.5101,-2.5128,-2.5097,-2.515,-2.5158,-2.5179,-2.5242,-2.527,-2.525,-2.5371,-2.5333,-2.5339,-2.5341,-2.5377,-2.539,-2.5402,-2.5248,-2.5248,-2.5247,0,0,-2.5062,-2.5075,-2.5123,-2.5139,-2.516,-2.516,-2.5172,-2.5189,-2.5193,-2.5246,-2.5224,-2.5257,-2.5314,-2.533,-2.5345,-2.5439,-2.542,-2.545,-2.55,-2.5537,-2.5548,-2.5558,-2.559,-2.5602,-2.5457,-2.5457,-2.5458,0,-2.5104,-2.5159,-2.515,-2.5193,-2.5211,-2.5187,-2.5235,-2.525,-2.5281,-2.5294,-2.5272,-2.5344,-2.5356,-2.5423,-2.5446,-2.546,-2.5473,-2.5446,-2.5547,-2.5557,-2.5565,-2.5596,-2.5608,-2.5461,-2.546,-2.546,-2.546,0,-2.5209,-2.5248,-2.5284,-2.5315,-2.5338,-2.5383,-2.5382,-2.5406,-2.5397,-2.54,-2.5455,-2.547,-2.5503,-2.5519,-2.551,-2.5585,-2.5572,-2.5549,-2.5508,-2.5582,-2.5611,-2.5622,-2.5466,-2.5464,-2.5463,-2.5463,0,0,-2.5321,-2.5348,-2.5361,-2.5375,-2.5399,-2.5428,-2.5473,-2.5506,-2.5527,-2.555,-2.5587,-2.5638,-2.5617,-2.5635,-2.5628,-2.5661,-2.5733,-2.5634,-2.5634,-2.565,-2.5815,-2.5831,-2.5844,-2.5722,-2.5724,-2.5726,-2.5813,0,-2.5405,-2.5483,-2.5478,-2.5551,-2.5586,-2.5565,-2.5604,-2.5623,-2.5627,-2.5658,-2.5664,-2.5699,-2.5669,-2.568,-2.5712,-2.5718,-2.5766,-2.5712,-2.5755,-2.5757,-2.5748,-2.586,-2.5876,-2.5957,-2.5824,-2.5826,-2.5828,0,-2.5513,-2.554,-2.5617,-2.5636,-2.5651,-2.5686,-2.5716,-2.5746,-2.5768,-2.5769,-2.579,-2.5779,-2.5825,-2.5785,-2.5848,-2.5811,-2.5829,-2.5835,-2.5838,-2.584,-2.5795,-2.5862,-2.5983,-2.5994,-2.5845,-2.5844,-2.5843,0,-2.5585,-2.5641,-2.5694,-2.5707,-2.5731,-2.5756,-2.5767,-2.5786,-2.5807,-2.5834,-2.5847,-2.588,-2.5897,-2.5922,-2.592,-2.5892,-2.5984,-2.5944,-2.5985,-2.5985,-2.6003,-2.6001,-2.6126,-2.6019,-2.6019,-2.6019,-2.6018,0,-2.5678,-2.5725,-2.5726,-2.5759,-2.5812,-2.5806,-2.5859,-2.5867,-2.5885,-2.5919,-2.5903,-2.5935,-2.5932,-2.5964,-2.5963,-2.6015,-2.6024,-2.6025,-2.6024,-2.6025,-2.6025,-2.6035,-2.6028,-2.6022,-2.6021,-2.602,-2.602,0,-2.5765,-2.5768,-2.5824,-2.5843,-2.5849,-2.5887,-2.5903,-2.5934,-2.5939,-2.5982,-2.5991,-2.5998,-2.6036,-2.6037,-2.6081,-2.608,-2.6143,-2.6136,-2.6135,-2.6133,-2.6173,-2.6169,-2.6307,-2.6324,-2.6208,-2.6209,-2.621,0,-2.5823,-2.5859,-2.5882,-2.5904,-2.5917,-2.5952,-2.5973,-2.597,-2.5993,-2.6022,-2.6049,-2.6086,-2.6114,-2.6176,-2.6185,-2.6218,-2.6211,-2.6257,-2.6215,-2.6216,-2.6209,-2.6206,-2.6209,-2.6264,-2.6266,-2.6267,-2.6267,0,-2.5926,-2.5926,-2.5957,-2.5989,-2.6015,-2.604,-2.6063,-2.6082,-2.6082,-2.6109,-2.6147,-2.617,-2.6215,-2.6251,-2.6284,-2.6296,-2.6282,-2.6281,-2.6292,-2.6292,-2.6289,-2.629,-2.6155,-2.6277,-2.6276,-2.6275,-2.6275,-2.6274,-2.5999,-2.603,-2.6051,-2.6086,-2.6104,-2.6127,-2.6157,-2.6165,-2.6198,-2.6234,-2.6231,-2.6273,-2.6295,-2.6338,-2.6353,-2.6387,-2.6371,-2.6387,-2.639,-2.6394,-2.6397,-2.6287,-2.6393,-2.6393,-2.6392,-2.6392,-2.6392,0,-2.6099,-2.6112,-2.6145,-2.6178,-2.6206,-2.6192,-2.6218,-2.6242,-2.628,-2.6302,-2.6331,-2.6376,-2.6411,-2.6424,-2.6459,-2.6484,-2.6478,-2.6493,-2.6489,-2.6492,-2.641,-2.6397,-2.6496,-2.6496,-2.6496,-2.6496,-2.6496,-2.6496,-2.6154,-2.6205,-2.6208,-2.6269,-2.6282,-2.6323,-2.6339,-2.636,-2.6377,-2.6428,-2.6458,-2.6466,-2.6485,-2.6521,-2.6553,-2.6556,-2.6569,-2.6586,-2.6586,-2.6509,-2.6498,-2.6488,-2.6475,-2.6589,-2.6589,-2.6664,-2.6665,-2.6666]},{"header":{"parameterUnit":"m.s-1","parameterCategory":1,"la1":30.2991,"la2":30.254,"lo1":-89.0895,"lo2":-89.0444,"dy":0.0017,"dx":0.0017,"nx":28,"ny":28,"refTime":"2024-08-30T09:00:00:Z","depth":0,"parameterNumber":3,"parameterNumberName":"V-component_of_WINDS"},"data":[0,0,0,0,0,0,0,0,0,0,0,0,0,0,0,0,0,0,0,0,0,0,0,0,0,0,0,0,0,0,0,0,0,0,0,0,0,0,0,0,0,0,0,0,0,0,0,0,0,0,0,0,0,0,0,0,0,0,3.7845,3.7845,0,3.7858,3.7858,3.7858,3.7777,3.7775,3.7773,3.777,3.7781,3.7783,3.7785,0,0,0,0,0,0,0,0,0,0,0,0,0,3.7747,3.7749,3.7845,3.7845,3.7845,3.7858,3.7858,3.7858,3.7778,3.7775,3.7772,3.7769,3.778,3.7783,3.7786,0,0,0,0,0,0,0,0,0,0,0,0,0,3.7778,3.775,3.7845,3.7806,3.7803,3.7858,3.7858,3.7858,3.7778,3.7775,3.7771,3.7768,3.7779,3.7783,3.7786,3.7877,0,0,3.7797,3.7799,0,0,0,0,0,0,0,0,3.7776,3.7781,3.7812,3.7809,3.7806,3.7812,3.7827,3.7865,3.7779,3.7788,3.777,3.7766,3.7794,3.7796,3.7806,3.7878,3.7878,3.7797,3.78,3.7801,3.7802,0,0,0,0,0,0,0,3.7774,3.778,3.785,3.7812,3.7809,3.7788,3.7788,3.7834,3.781,3.7786,3.7781,3.7784,3.7791,3.7803,3.7806,3.7878,3.7797,3.7801,3.7803,3.7804,3.8025,3.8028,0,0,0,0,0,0,3.7778,3.7779,3.7849,3.785,3.7782,3.7792,3.7793,3.7814,3.7809,3.7805,3.7786,3.778,3.7798,3.7801,3.7806,3.791,3.7801,3.7805,3.7807,3.8021,3.8026,3.803,0,0,0,0,0,0,3.7776,3.7785,3.7849,3.7813,3.782,3.7798,3.7822,3.7816,3.7827,3.7809,3.7804,3.7802,3.7796,3.7801,3.786,3.791,3.7806,3.7809,3.8017,3.8022,3.8028,3.8122,0,0,0,0,0,0,3.7773,3.7784,3.7819,3.7815,3.7822,3.7904,3.7825,3.7818,3.7834,3.7825,3.7823,3.7819,3.7793,3.7855,3.7864,3.7913,3.7812,3.8012,3.8019,3.8026,3.8114,3.813,3.8144,0,0,0,0,0,3.777,3.7845,3.7821,3.783,3.7865,3.7907,3.7911,3.7881,3.7838,3.7872,3.7861,3.7819,3.7904,3.7862,3.7871,3.7922,3.8009,3.8017,3.8025,3.8108,3.8127,3.8143,0,0,0,0,0,0,3.7854,3.7843,3.7817,3.7893,3.7902,3.7893,3.7935,3.7902,3.7922,3.7913,3.7874,3.7874,3.794,3.7937,3.7891,3.801,3.7949,3.7959,3.8008,3.8026,3.8041,3.8038,3.7815,0,0,0,0,0,3.7881,3.7917,3.7906,3.7973,3.7979,3.7957,3.7974,3.795,3.7957,3.796,3.7953,3.7961,3.7989,3.8008,3.8033,3.8115,3.8112,3.8155,3.8169,3.8181,3.819,3.8231,3.8249,3.8057,3.8057,3.8057,0,0,3.7938,3.7936,3.7961,3.799,3.7994,3.8031,3.796,3.8002,3.8029,3.7966,3.8021,3.8017,3.8023,3.8094,3.8125,3.8094,3.8243,3.8192,3.8202,3.8203,3.8242,3.826,3.8276,3.8062,3.8061,3.8061,0,0,3.8058,3.8063,3.8118,3.8125,3.8132,3.8117,3.8131,3.8129,3.8124,3.8179,3.8133,3.8164,3.8214,3.822,3.8229,3.8356,3.8317,3.8365,3.844,3.8481,3.8496,3.851,3.8552,3.8568,3.8374,3.8375,3.8375,0,3.8127,3.8181,3.8151,3.8196,3.821,3.8158,3.8214,3.8221,3.8236,3.8246,3.8212,3.8274,3.8274,3.8345,3.8376,3.8387,3.84,3.8363,3.8497,3.851,3.8522,3.8562,3.8578,3.838,3.838,3.8379,3.8378,0,3.8264,3.8303,3.8347,3.8364,3.8384,3.8434,3.8411,3.8434,3.841,3.8399,3.8456,3.8455,3.8479,3.8495,3.8471,3.8562,3.8543,3.8504,3.8441,3.8546,3.8583,3.8598,3.8388,3.8386,3.8385,3.8383,0,0,3.8433,3.8436,3.8452,3.8459,3.8466,3.8494,3.8543,3.8567,3.8587,3.8601,3.8638,3.8683,3.8648,3.8659,3.8636,3.8673,3.877,3.8629,3.8628,3.8652,3.8869,3.8895,3.8914,3.8747,3.875,3.8752,3.8867,0,3.8549,3.8632,3.8608,3.8691,3.8725,3.8678,3.872,3.8728,3.8719,3.8747,3.8737,3.8769,3.872,3.8727,3.8761,3.8751,3.8812,3.8743,3.8779,3.8781,3.8776,3.8933,3.8962,3.907,3.8882,3.8884,3.8886,0,3.8694,3.8715,3.8802,3.8802,3.8816,3.8854,3.8875,3.8903,3.8911,3.8902,3.8916,3.8886,3.8933,3.8874,3.8936,3.8889,3.8904,3.8902,3.8905,3.8904,3.8837,3.8934,3.9104,3.9119,3.8909,3.8907,3.8905,0,3.8806,3.8856,3.8913,3.8922,3.8925,3.8953,3.8955,3.896,3.8977,3.8995,3.9005,3.9029,3.9041,3.906,3.9036,3.8996,3.9102,3.9041,3.9094,3.9095,3.9115,3.9114,3.9287,3.9131,3.9131,3.913,3.913,0,3.8936,3.899,3.8964,3.8999,3.9058,3.9031,3.909,3.9087,3.9092,3.9125,3.9087,3.9118,3.9088,3.9117,3.9099,3.9153,3.9159,3.9152,3.9146,3.9154,3.9154,3.9159,3.915,3.9135,3.9134,3.9133,3.9132,0,3.9068,3.9053,3.9113,3.9112,3.9114,3.9157,3.9156,3.9188,3.9178,3.9221,3.9229,3.9213,3.9245,3.9225,3.9258,3.9246,3.9315,3.9301,3.9312,3.9307,3.936,3.9354,3.954,3.9562,3.9395,3.9397,3.9398,0,3.915,3.9191,3.9195,3.9216,3.9221,3.9254,3.9271,3.9246,3.9266,3.9279,3.931,3.9339,3.936,3.9414,3.9405,3.9429,3.9413,3.9477,3.9416,3.9422,3.941,3.9407,3.941,3.9487,3.9489,3.9491,3.9492,0,3.9296,3.9287,3.9314,3.934,3.9362,3.938,3.9395,3.9413,3.9389,3.9412,3.9446,3.9463,3.9497,3.9525,3.9547,3.9548,3.9515,3.9512,3.9525,3.9531,3.9535,3.9531,3.9342,3.9507,3.9505,3.9504,3.9504,3.9503,3.9404,3.9437,3.9446,3.9478,3.9487,3.9502,3.9532,3.9528,3.9555,3.9581,3.9566,3.9604,3.9612,3.9637,3.9643,3.9672,3.9646,3.9666,3.967,3.9674,3.9681,3.9534,3.9677,3.9676,3.9676,3.9675,3.9675,0,3.9545,3.9549,3.9579,3.9602,3.9627,3.9598,3.9613,3.9635,3.967,3.9681,3.9704,3.9742,3.977,3.9765,3.979,3.9814,3.98,3.9822,3.9818,3.9818,3.9704,3.9688,3.9833,3.9833,3.9833,3.9833,3.9833,3.9833,3.9621,3.9677,3.967,3.9729,3.9732,3.9771,3.9782,3.9796,3.9804,3.9849,3.9873,3.987,3.9874,3.99,3.9924,3.9922,3.9932,3.9958,3.995,3.9842,3.9826,3.9811,3.9797,3.9961,3.9961,4.0061,4.0062,4.0063]}]]